Weather History for Gillette, WY

Change the Weather History Date:

Thursday, October 4, 2012

  Actual Average Record
Temperature  
Mean Temperature 36 °F 50 °F  
Max Temperature 44 °F 63 °F 89 °F (1963)
Min Temperature 28 °F 36 °F 24 °F (1954)
Degree Days  
Heating Degree Days 29 16  
Month to date heating degree days 67 60  
Since 1 July heating degree days 225 355  
Moisture  
Dew Point 28 °F    
Average Humidity 75    
Maximum Humidity 100    
Minimum Humidity 49    
Precipitation  
Precipitation 0.01 in 0.05 in 1.11 in (1998)
Month to date precipitation 0.04 0.20  
Year to date precipitation 7.62 11.87  
Sea Level Pressure  
Sea Level Pressure 30.39 in    
Wind  
Wind Speed 6 mph (North)    
Max Wind Speed 17 mph    
Max Gust Speed 22 mph    
Visibility 10 miles    
Events Snow    
T = Trace of Precipitation, MM = Missing Value Source: NWS Daily Summary

Daily Weather History Graph

Daily Weather History Graph

Search for Another Location

Airport:

Trip Planner

Search our weather history database for the weather conditions in past years. The results will help you decide how hot, cold, wet, or windy it might be!

Date:

Astronomy

Oct. 04, 2012 Rise Set
Actual Time 7:04 AM MDT 6:36 PM MDT
Civil Twilight 6:35 AM MDT 7:05 PM MDT
Nautical Twilight 6:01 AM MDT 7:38 PM MDT
Astronomical Twilight 5:27 AM MDT 8:12 PM MDT
Moon 9:03 PM MDT (10/4) 11:33 AM MDT (10/4)
Length of Visible Light 12h 30m
Length of Day
11h 32m
Waning Gibbous, 81% of the Moon is Illuminated
Oct 4
Waning Gibbous
Oct 8
Last Quarter
Oct 15
New
Oct 21
First Quarter
Oct 29
Full

Hourly Weather History & Observations

Time (MDT) Temp. Windchill Dew Point Humidity Pressure Visibility Wind Dir Wind Speed Gust Speed Precip Events Conditions
12:17 AM 33.8 °F 26.4 °F 30.2 °F 87% 30.38 in 10.0 mi NNW 9.2 mph - N/A   Overcast
12:53 AM 32.0 °F 21.6 °F 30.9 °F 96% 30.44 in 10.0 mi NNW 15.0 mph - N/A   Overcast
1:48 AM 32.0 °F 23.6 °F 30.2 °F 93% 30.38 in 10.0 mi NW 10.4 mph - N/A   Overcast
1:53 AM 32.0 °F 22.5 °F 30.0 °F 92% 30.45 in 10.0 mi NW 12.7 mph - N/A   Overcast
2:42 AM 32.0 °F 22.5 °F 30.2 °F 93% 30.37 in 10.0 mi NNW 12.7 mph - N/A   Overcast
2:53 AM 32.0 °F 24.8 °F 30.0 °F 92% 30.45 in 10.0 mi NNW 8.1 mph - N/A   Overcast
3:27 AM 32.0 °F 23.6 °F 30.2 °F 93% 30.36 in 10.0 mi NNW 10.4 mph - N/A   Overcast
3:53 AM 30.9 °F 25.2 °F 30.0 °F 96% 30.45 in 8.0 mi NNW 5.8 mph - N/A   Overcast
4:53 AM 32.0 °F 23.6 °F 28.9 °F 88% 30.45 in 10.0 mi NNW 10.4 mph - N/A   Overcast
5:21 AM 30.2 °F 23.4 °F 28.4 °F 93% 30.37 in 10.0 mi NNW 6.9 mph - N/A   Overcast
5:28 AM 30.2 °F 24.3 °F 28.4 °F 93% 30.37 in 10.0 mi NNW 5.8 mph - N/A   Overcast
5:53 AM 30.0 °F 26.5 °F 28.9 °F 96% 30.45 in 10.0 mi North 3.5 mph - N/A   Mostly Cloudy
6:53 AM 30.0 °F 26.5 °F 28.9 °F 96% 30.45 in 10.0 mi NNE 3.5 mph - N/A   Overcast
7:53 AM 30.9 °F - 30.0 °F 96% 30.45 in 10.0 mi Calm Calm - N/A   Overcast
8:15 AM 32.0 °F - 30.2 °F 93% 30.36 in 10.0 mi Calm Calm - N/A   Mostly Cloudy
8:27 AM 32.0 °F - 30.2 °F 93% 30.37 in 10.0 mi Calm Calm - N/A   Mostly Cloudy
8:34 AM 32.0 °F 28.7 °F 30.2 °F 93% 30.36 in 10.0 mi Variable 3.5 mph - N/A   Scattered Clouds
8:53 AM 33.1 °F 30.0 °F 30.0 °F 89% 30.44 in 10.0 mi SSE 3.5 mph - N/A   Scattered Clouds
9:07 AM 33.8 °F - 30.2 °F 87% 30.36 in 10.0 mi Calm Calm - N/A   Mostly Cloudy
9:53 AM 36.0 °F 32.1 °F 28.0 °F 73% 30.43 in 10.0 mi North 4.6 mph - N/A   Overcast
10:37 AM 39.2 °F 35.9 °F 28.4 °F 65% 30.36 in 10.0 mi Variable 4.6 mph - N/A   Scattered Clouds
10:53 AM 37.9 °F 32.1 °F 26.1 °F 62% 30.41 in 10.0 mi NNE 8.1 mph - N/A   Mostly Cloudy
11:03 AM 39.2 °F 35.0 °F 26.6 °F 61% 30.34 in 10.0 mi ENE 5.8 mph - N/A   Scattered Clouds
11:53 AM 41.0 °F 39.0 °F 25.0 °F 53% 30.39 in 10.0 mi Variable 3.5 mph - N/A   Partly Cloudy
12:53 PM 41.0 °F 37.1 °F 25.0 °F 53% 30.38 in 10.0 mi North 5.8 mph - N/A   Overcast
1:53 PM 42.1 °F 39.2 °F 24.1 °F 49% 30.36 in 10.0 mi North 4.6 mph - N/A   Overcast
2:53 PM 43.0 °F 38.2 °F 24.1 °F 47% 30.32 in 10.0 mi NNW 8.1 mph - N/A   Overcast
3:53 PM 42.1 °F 40.2 °F 24.1 °F 49% 30.34 in 10.0 mi North 3.5 mph - N/A   Mostly Cloudy
4:53 PM 41.0 °F 34.7 °F 24.1 °F 51% 30.34 in 10.0 mi NE 10.4 mph - N/A   Overcast
5:53 PM 39.9 °F 33.4 °F 24.1 °F 53% 30.35 in 10.0 mi NE 10.4 mph - N/A   Overcast
6:53 PM 37.9 °F 30.5 °F 26.1 °F 62% 30.37 in 10.0 mi ENE 11.5 mph - N/A   Overcast
7:53 PM 37.0 °F 29.8 °F 25.0 °F 62% 30.38 in 10.0 mi ENE 10.4 mph - N/A   Overcast
8:53 PM 36.0 °F 29.6 °F 26.1 °F 67% 30.38 in 10.0 mi ENE 8.1 mph - N/A   Overcast
9:53 PM 35.1 °F 30.1 °F 26.1 °F 70% 30.38 in 10.0 mi ENE 5.8 mph - N/A   Overcast
10:53 PM 35.1 °F 30.1 °F 26.1 °F 70% 30.37 in 10.0 mi NE 5.8 mph - N/A   Overcast
11:53 PM 34.0 °F 28.0 °F 26.1 °F 73% 30.36 in 6.0 mi East 6.9 mph - 0.00 in Snow Light Snow